Vancouver, WA
on Tuesday, January 22, 2013

Tuesday
Previous Day Next Day
Daily Summary
 ActualAverageRecord
Temperature
Mean Temperature °F 42°F  
Max Temperature 41°F 48°F 60°F (1919)
Min Temperature 20°F 36°F 4°F (1930)
Degree Days
Heating Degree Days 34    
Month to date heating degree days 664  
Since 1 July heating degree days 2212  
Cooling Degree Days 0    
Month to date cooling degree days 0  
Year to date cooling degree days 0  
Moisture
Dew Point 22°F   
Average Humidity 72    
Maximum Humidity 92    
Minimum Humidity 51    
Precipitation
Precipitation 0.00 in 0.15 in 1.59 in (1954)
Month to date precipitation 1.02 4.07  
Year to date precipitation 1.02 4.07  
Snow
Snow 0.00 in in in ()
Month to date snowfall 0.0  
Snow Depth 0.00 in   
Wind
Wind Speed 3 mph   
Max Wind Speed 10 mph   
Max Gust Speed 15 mph   
Visibility 9 miles   
Events     

Key: T is trace of precipitation, MM is missing value
Source: NWS Daily Summary
Time(PST)TemperatureDew PointHumidity Pressure Visibility Wind DirectionWind SpeedGust SpeedPrecipitationEvents Conditions
12:53 AM 21.9°F 19.0°F 89% 30.18 in 9.0 miles Calm Calm - N/A   Clear
1:53 AM 24.1°F 19.9°F 84% 30.18 in 8.0 miles Calm Calm - N/A   Clear
2:53 AM 21.9°F 19.0°F 89% 30.17 in 8.0 miles Calm Calm - N/A   Clear
3:53 AM 21.9°F 18.0°F 85% 30.16 in 8.0 miles Calm Calm - N/A   Clear
4:53 AM 21.9°F 18.0°F 85% 30.14 in 8.0 miles Calm Calm - N/A   Clear
5:53 AM 21.0°F 18.0°F 88% 30.14 in 7.0 miles Calm Calm - N/A   Clear
6:53 AM 25.0°F 21.0°F 85% 30.13 in 8.0 miles Calm Calm - N/A   Clear
7:53 AM 21.0°F 19.0°F 92% 30.12 in 6.0 miles Calm Calm - N/A   Clear
8:53 AM 26.1°F 23.0°F 88% 30.12 in 7.0 miles Calm Calm - N/A   Clear
9:53 AM 32.0°F 25.0°F 75% 30.13 in 10.0 miles Calm Calm - N/A   Clear
10:53 AM 35.1°F 24.1°F 64% 30.12 in 10.0 miles Calm Calm - N/A   Clear
11:53 AM 37.0°F 24.1°F 59% 30.10 in 10.0 miles Calm Calm - N/A   Clear
12:53 PM 39.0°F 25.0°F 57% 30.07 in 10.0 miles Calm Calm - N/A   Clear
1:53 PM 39.9°F 25.0°F 55% 30.05 in 10.0 miles SE 4.6 mph - N/A   Clear
2:53 PM 41.0°F 24.1°F 51% 30.04 in 10.0 miles SE 6.9 mph - N/A   Clear
3:53 PM 39.0°F 24.1°F 55% 30.03 in 10.0 miles SE 8.1 mph - N/A   Clear
4:53 PM 37.0°F 24.1°F 59% 30.01 in 10.0 miles SE 4.6 mph - N/A   Clear
5:53 PM 35.1°F 23.0°F 61% 30.00 in 10.0 miles SSE 4.6 mph - N/A   Clear
6:53 PM 35.1°F 23.0°F 61% 29.99 in 10.0 miles SE 8.1 mph - N/A   Clear
7:53 PM 34.0°F 23.0°F 64% 29.99 in 10.0 miles SE 8.1 mph - N/A   Clear
8:53 PM 33.1°F 23.0°F 66% 29.97 in 10.0 miles SE 4.6 mph - N/A   Clear
9:53 PM 34.0°F 23.0°F 64% 29.97 in 10.0 miles SSE 5.8 mph - N/A   Clear
10:53 PM 34.0°F 23.0°F 64% 29.97 in 10.0 miles Variable 3.5 mph - N/A   Clear
11:53 PM 35.1°F 23.0°F 61% 29.99 in 10.0 miles SE 4.6 mph - N/A   Scattered Clouds
Moon Phase
Jan. 22 Jan. 26 Feb. 03 Feb. 10 Feb. 17
Sunrise:07:41 AM (PST) Moon Rise:01:27 PM (PST)
Sunset:05:03 PM (PST) Moon Set:04:10 AM (PST)

Copyright © 2014 The Weather Underground, Inc.